Location: Castelbiague
(43.0361°N, 0.9246°E)
Time: 13:29:36
(UTC+00:00)

Lacrosse 5 - Pass Details

Date: 17 June 2021
Orbit: 715 x 724 km, 57.0° (Epoch: 28 July)

Event Time Altitude Azimuth Distance (km) Brightness Sun altitude
Rises 21:55:39 0° 301° (WNW) 3,125 6.2 -17.9°
Reaches altitude 10° 21:58:36 10° 284° (WNW) 2,202 5.0 -18.2°
Maximum altitude 22:02:11 20° 239° (WSW) 1,637 3.7 -18.5°
Enters shadow 22:04:09 16° 210° (SSW) 1,821 3.6 -18.6°
